Stations météo

Publicité
Le Touquet, France (7003): Température de l'air & dewpoint: 26.10.2020 00:00:00 - 01.11.2020 00:00:00 (CET)Le Touquet, France (7003): Température de l'air 5cm: 26.10.2020 00:00:00 - 01.11.2020 00:00:00 (CET)Le Touquet, France (7003): Vitesse du vent & gusts: 26.10.2020 00:00:00 - 01.11.2020 00:00:00 (CET)Le Touquet, France (7003): Direction du vent: 26.10.2020 00:00:00 - 01.11.2020 00:00:00 (CET)Le Touquet, France (7003): reduced air pressure: 26.10.2020 00:00:00 - 01.11.2020 00:00:00 (CET)Le Touquet, France (7003): visibility: 26.10.2020 00:00:00 - 01.11.2020 00:00:00 (CET)Le Touquet, France (7003): Ensoleillement: 26.10.2020 00:00:00 - 01.11.2020 00:00:00 (CET)Le Touquet, France (7003): Quantités de précipitations: 26.10.2020 00:00:00 - 01.11.2020 00:00:00 (CET)
Date & Time tt [°C] td [°C] tt 5cm [°C] ff [km/h] ff [knt] fx [km/h] fx [knt] dd ppp [hPa] vv [km] sd [min] rr [mm]
01.11.2020 00:00:00 13,6 6,9 12,2 19 11 38 20 WSW 1015,3 19 0 0,0
31.10.2020 23:00:00 13,6 8,2 11,7 19 10 34 18 WSW 1014,4 15 0 0,0
31.10.2020 22:00:00 13,3 7,5 11,3 16 8 33 18 WSW 1014,3 17 0 0,0
31.10.2020 21:00:00 13,5 7,0 10,7 16 9 39 21 W 1014,4 17 0 0,0
31.10.2020 20:00:00 13,6 7,1 10,9 21 11 47 26 W 1014,0 17 0 0,0
31.10.2020 19:00:00 13,9 9,3 11,6 23 13 46 25 W 1013,7 15 0 0,0
31.10.2020 18:00:00 13,9 11,4 12,2 18 10 50 27 WSW 1012,9 11 0 1,0
31.10.2020 17:00:00 14,7 13,7 14,2 21 11 45 24 SSW 1011,7 2,7 0 0,8
31.10.2020 16:00:00 15,4 13,4 14,2 21 11 50 27 S 1011,0 8 0 1,0
31.10.2020 15:00:00 17,1 12,2 15,1 21 11 45 25 S 1011,3 20 0 0,0
31.10.2020 14:00:00 16,4 11,8 16,1 20 11 42 23 SSE 1011,7 60 6 0,0
31.10.2020 13:00:00 16,8 11,3 16,9 26 14 53 29 S 1013,0 32 56 0,0
31.10.2020 12:00:00 15,8 11,2 15,3 23 12 50 27 S 1014,3 48 16 0,0
31.10.2020 11:00:00 14,8 10,4 15,7 22 12 44 24 S 1015,5 43 46 0,0
31.10.2020 10:00:00 14,3 10,7 13,7 21 11 37 20 SSE 1016,1 52 9 0,0
31.10.2020 09:00:00 13,5 10,5 12,7 18 10 35 19 SSE 1017,5 52 0 0,0
31.10.2020 08:00:00 13,5 10,1 12,9 18 10 32 17 SSE 1017,7 60 0 0,0
31.10.2020 07:00:00 13,5 10,1 12,8 14 8 28 15 SSE 1018,5 60 0 0,0
31.10.2020 06:00:00 13,7 9,5 12,8 12 6 19 10 S 1019,3 60 0 0,0
31.10.2020 05:00:00 13,5 9,9 12,8 11 6 21 11 SSE 1019,8 60 0 0,0
31.10.2020 04:00:00 13,8 9,4 12,9 11 6 19 11 S 1020,3 60 0 0,0
31.10.2020 03:00:00 13,8 9,8 12,9 9 5 24 13 SSE 1021,1 60 0 0,0
31.10.2020 02:00:00 14,3 9,9 13,4 13 7 23 13 S 1021,7 58 0 0,0
31.10.2020 01:00:00 14,5 10,7 13,6 14 8 29 16 S 1022,2 53 0 0,0
31.10.2020 00:00:00 14,4 11,7 13,6 9 5 16 9 S 1022,5 55 0 0,0
30.10.2020 23:00:00 14,3 12,3 13,7 7 4 16 9 SSE 1022,9 50 0 0,0
30.10.2020 22:00:00 14,9 12,2 14,3 10 6 21 11 S 1022,8 20 0 0,0
30.10.2020 21:00:00 14,9 12,6 14,1 11 6 23 12 SSW 1022,4 55 0 0,0
30.10.2020 20:00:00 14,5 13,0 14,2 8 4 31 17 S 1022,2 19 0 0,0
30.10.2020 19:00:00 14,9 12,9 14,4 14 8 35 19 SW 1022,2 11 0 0,0
30.10.2020 18:00:00 15,0 12,9 14,0 18 10 36 20 SW 1021,9 53 0 0,0
30.10.2020 17:00:00 14,8 12,8 14,2 18 10 34 19 SW 1021,6 19 0 0,0
30.10.2020 16:00:00 14,2 12,9 14,2 28 15 50 27 WSW 1021,4 5 0 0,0
30.10.2020 15:00:00 15,7 12,3 15,8 22 12 41 22 SW 1020,9 45 0 0,0
30.10.2020 14:00:00 15,6 12,3 15,9 22 12 41 22 SW 1020,8 20 0 0,0
30.10.2020 13:00:00 15,5 12,3 15,8 25 14 45 24 SW 1020,6 20 0 0,0
30.10.2020 12:00:00 15,2 12,5 15,3 20 11 43 23 SW 1020,6 20 0 0,0
30.10.2020 11:00:00 14,9 12,6 14,8 22 12 41 22 SW 1020,1 20 0 0,0
30.10.2020 10:00:00 14,7 12,7 14,8 20 11 42 23 SW 1019,8 18 0 0,0
30.10.2020 09:00:00 14,9 12,8 14,5 23 13 47 25 SW 1019,6 17 0 0,0
30.10.2020 08:00:00 14,8 12,7 14,3 29 15 46 25 SW 1019,1 17 0 0,0
30.10.2020 07:00:00 14,8 12,7 14,3 24 13 46 25 SW 1018,4 17 0 0,0
30.10.2020 06:00:00 14,8 12,8 14,1 23 13 46 25 WSW 1018,3 15 0 0,0
30.10.2020 05:00:00 14,4 12,8 13,8 26 14 46 25 SW 1018,1 17 0 0,0
30.10.2020 04:00:00 14,4 12,9 13,6 25 14 51 28 SW 1017,9 16 0 0,0
30.10.2020 03:00:00 14,8 12,5 14,4 27 15 48 26 SW 1017,8 17 0 0,0
30.10.2020 02:00:00 15,2 12,0 14,5 24 13 44 24 SW 1017,7 19 0 0,0
30.10.2020 01:00:00 15,1 12,0 14,4 25 13 47 26 SW 1017,7 19 0 0,0
30.10.2020 00:00:00 15,0 12,3 14,5 21 11 46 25 SW 1017,4 18 0 0,0
29.10.2020 23:00:00 15,1 12,8 14,4 22 12 42 23 SW 1017,2 17 0 0,0
29.10.2020 22:00:00 15,0 12,9 14,3 24 13 43 23 SW 1017,3 15 0 0,0
29.10.2020 21:00:00 15,0 12,5 13,9 23 12 48 26 WSW 1017,0 16 0 0,0
29.10.2020 20:00:00 14,8 12,8 13,6 19 10 44 24 SW 1017,0 14 0 0,0
29.10.2020 19:00:00 14,4 13,1 13,3 21 11 51 28 SW 1016,7 8 0 0,0
29.10.2020 18:00:00 14,1 13,1 13,1 24 13 44 24 WSW 1016,4 12 0 0,4
29.10.2020 17:00:00 13,9 12,5 12,9 24 13 42 23 SW 1016,0 8 0 0,0
29.10.2020 16:00:00 13,6 12,0 12,7 24 13 44 24 SW 1016,2 4,7 0 0,0
29.10.2020 15:00:00 13,4 11,1 12,1 23 12 41 22 SSW 1016,2 19 0 0,0
29.10.2020 14:00:00 12,7 11,1 12,1 16 9 42 23 SSW 1016,8 12 0 0,2
29.10.2020 13:00:00 13,5 11,4 13,3 22 12 39 21 SW 1017,1 17 0 0,0
29.10.2020 12:00:00 13,5 11,7 13,2 18 10 40 21 SW 1017,4 14 0 0,2
29.10.2020 11:00:00 14,0 10,6 13,2 15 8 32 17 WSW 1017,0 15 0 0,0
29.10.2020 10:00:00 13,9 9,7 12,8 13 7 33 18 W 1016,9 17 0 0,0
29.10.2020 09:00:00 13,6 8,2 11,6 16 9 41 22 W 1016,1 19 0 0,0
29.10.2020 08:00:00 13,3 8,1 11,5 18 10 34 18 W 1015,5 19 0 0,0
29.10.2020 07:00:00 13,1 8,8 11,6 13 7 35 19 W 1014,6 19 0 0,0
29.10.2020 06:00:00 13,4 7,6 11,5 19 11 40 21 W 1013,8 45 0 0,0
29.10.2020 05:00:00 13,5 6,4 11,3 23 13 46 25 W 1012,9 52 0 0,0
29.10.2020 04:00:00 13,3 6,6 10,8 27 15 45 24 W 1012,3 49 0 0,0
29.10.2020 03:00:00 13,3 8,1 10,4 23 13 49 26 WNW 1011,6 15 0 0,0
29.10.2020 02:00:00 12,7 6,9 9,9 27 14 49 26 WNW 1011,1 53 0 0,0
29.10.2020 01:00:00 12,2 7,9 9,8 29 16 55 30 W 1010,3 20 0 0,0
29.10.2020 00:00:00 12,3 7,8 9,4 22 12 50 27 W 1009,5 49 0 0,6
28.10.2020 23:00:00 12,4 8,7 9,9 23 13 56 30 W 1008,9 20 0 0,2
28.10.2020 22:00:00 12,5 8,8 10,2 26 14 54 29 W 1008,2 16 0 0,2
28.10.2020 21:00:00 12,4 8,7 9,9 20 11 44 24 W 1007,5 53 0 0,0
28.10.2020 20:00:00 11,6 9,2 9,8 17 9 54 29 W 1006,8 19 0 3,2
28.10.2020 19:00:00 10,6 9,5 8,5 20 11 75 40 WNW 1006,8 3,1 0 11,3
28.10.2020 18:00:00 11,1 10,3 9,6 19 10 39 21 WSW 1006,3 1,5 0 10,2
28.10.2020 17:00:00 10,5 8,6 9,6 16 9 47 26 W 1005,9 5 0 1,6
28.10.2020 16:00:00 12,3 9,7 11,4 23 13 48 26 SSW 1006,0 18 0 0,0
28.10.2020 15:00:00 13,1 8,4 10,7 28 15 59 32 SW 1006,3 43 0 0,2
28.10.2020 14:00:00 12,3 9,5 11,2 24 13 67 36 SW 1006,7 18 3 0,0
28.10.2020 13:00:00 14,3 8,5 14,3 31 17 56 30 SW 1006,6 18 23 0,0
28.10.2020 12:00:00 13,6 9,6 13,0 29 16 57 31 SW 1006,8 18 11 0,0
28.10.2020 11:00:00 12,6 9,1 11,0 29 16 59 32 SSW 1006,7 17 7 0,0
28.10.2020 10:00:00 11,2 9,6 10,3 18 10 47 25 S 1006,3 8 0 1,0
28.10.2020 09:00:00 12,2 9,2 11,6 22 12 51 28 SSW 1006,2 18 18 0,0
28.10.2020 08:00:00 12,3 9,5 11,0 22 12 54 29 SW 1005,4 17 0 0,0
28.10.2020 07:00:00 12,5 8,8 10,1 23 13 54 29 WSW 1004,9 19 0 0,0
28.10.2020 06:00:00 12,3 7,4 9,4 22 12 50 27 WSW 1004,8 51 0 0,2
28.10.2020 05:00:00 12,6 8,5 8,8 24 13 51 27 WSW 1004,6 17 0 0,6
28.10.2020 04:00:00 12,7 9,1 8,6 21 11 50 27 WSW 1003,8 18 0 0,6
28.10.2020 03:00:00 11,6 8,8 9,0 12 7 44 24 WSW 1003,8 20 0 1,0
28.10.2020 02:00:00 11,0 9,7 10,2 21 11 50 27 W 1004,1 4,7 0 2,2
28.10.2020 01:00:00 13,2 10,0 10,7 16 9 33 18 SW 1003,2 18 0 0,0
28.10.2020 00:00:00 12,6 8,3 10,5 13 7 38 20 WSW 1003,0 18 0 0,0
27.10.2020 23:00:00 13,5 8,5 10,6 12 6 34 19 W 1002,5 20 0 0,0
27.10.2020 22:00:00 13,8 9,2 11,3 17 9 37 20 W 1001,9 19 0 0,0
27.10.2020 21:00:00 13,9 10,5 10,9 17 9 48 26 W 1001,0 19 0 0,0
27.10.2020 20:00:00 14,1 9,7 11,5 27 14 49 27 W 1000,2 20 0 0,0
27.10.2020 19:00:00 13,0 12,5 11,7 21 12 42 23 SSW 998,6 7 0 0,6
27.10.2020 18:00:00 12,2 11,4 11,0 18 10 37 20 S 998,0 13 0 1,8
27.10.2020 17:00:00 11,8 10,2 10,6 20 11 41 22 S 998,2 10 0 0,0
27.10.2020 16:00:00 11,2 10,1 10,5 19 10 37 20 S 999,2 59 0 0,4
27.10.2020 15:00:00 10,7 9,9 10,4 19 11 39 21 S 999,8 3,8 0 0,8
27.10.2020 14:00:00 10,6 9,4 10,4 20 11 41 22 S 1000,7 4,2 0 0,4
27.10.2020 13:00:00 11,2 8,6 11,1 22 12 43 23 S 1001,9 19 0 0,0
27.10.2020 12:00:00 11,5 8,2 10,6 18 10 40 22 S 1002,9 52 0 0,0
27.10.2020 11:00:00 10,9 9,0 10,1 19 10 36 19 S 1003,5 17 0 0,0
27.10.2020 10:00:00 10,8 9,1 10,1 18 10 36 19 SSW 1003,6 16 0 0,0
27.10.2020 09:00:00 10,8 9,7 10,0 16 9 37 20 S 1003,5 4,7 0 0,2
27.10.2020 08:00:00 10,6 9,5 9,2 13 7 31 17 SW 1003,4 17 0 0,6
27.10.2020 07:00:00 10,3 9,4 8,8 6 3 12 6 SSW 1003,4 59 0 1,0
27.10.2020 06:00:00 9,8 8,6 9,0 4 2 29 16 S 1003,5 7 0 1,4
27.10.2020 05:00:00 10,4 9,5 9,2 14 7 27 15 SW 1003,3 6 0 2,2
27.10.2020 04:00:00 10,3 8,9 8,1 17 9 37 20 SSW 1002,9 7 0 0,2
27.10.2020 03:00:00 10,8 7,3 7,4 4 2 12 6 SW 1003,3 60 0 0,0
27.10.2020 02:00:00 9,8 8,6 7,9 4 2 25 13 S 1003,4 60 0 0,0
27.10.2020 01:00:00 11,2 8,9 9,5 12 7 24 13 SSW 1003,3 20 0 0,0
27.10.2020 00:00:00 12,3 7,0 9,3 10 5 27 15 WNW 1003,4 20 0 0,0
26.10.2020 23:00:00 12,6 7,3 9,6 12 7 28 15 W 1003,2 20 0 0,0
26.10.2020 22:00:00 12,6 7,1 9,9 14 7 31 17 W 1002,7 54 0 0,0
26.10.2020 21:00:00 12,7 7,4 10,0 14 8 29 16 W 1002,3 51 0 0,0
26.10.2020 20:00:00 12,8 7,9 10,2 13 7 34 18 W 1001,8 53 0 0,0
26.10.2020 19:00:00 12,5 9,0 9,7 13 7 28 15 WSW 1001,3 20 0 0,0
26.10.2020 18:00:00 11,6 9,7 10,0 17 9 44 24 SW 1000,8 20 0 0,2
26.10.2020 17:00:00 11,5 9,4 10,3 27 14 56 30 SW 1000,5 19 13 0,0
26.10.2020 16:00:00 11,6 9,5 10,1 25 14 55 30 SW 1000,3 17 2 0,2
26.10.2020 15:00:00 11,9 9,6 10,0 22 12 54 29 SW 1000,2 19 1 0,0
26.10.2020 14:00:00 10,9 9,3 10,1 24 13 50 27 SSW 1000,2 5 8 0,8
26.10.2020 13:00:00 11,2 8,9 9,2 23 12 56 30 SW 1000,6 29 0 0,8
26.10.2020 12:00:00 10,1 8,2 9,2 21 11 40 22 SSW 1000,9 15 1 0,2
26.10.2020 11:00:00 10,9 8,8 9,2 21 12 40 22 SSW 1000,7 20 9 0,0
26.10.2020 10:00:00 9,8 8,6 7,4 21 12 43 23 SSW 1000,6 18 0 3,5
26.10.2020 09:00:00 9,1 7,2 8,2 11 6 42 23 S 1000,3 19 5 4,3
26.10.2020 08:00:00 9,7 8,5 7,5 8 5 21 12 SSW 999,6 7 0 3,7
26.10.2020 07:00:00 8,9 6,9 7,2 10 5 27 15 SW 999,1 8 0 4,5
26.10.2020 06:00:00 9,3 8,2 8,5 11 6 40 22 W 999,0 3,0 0 3,4
26.10.2020 05:00:00 9,9 7,8 8,4 18 10 42 23 SSW 998,8 20 0 0,0
26.10.2020 04:00:00 10,2 8,0 8,8 22 12 47 26 SSW 998,6 19 0 0,0
26.10.2020 03:00:00 10,0 8,4 8,4 16 9 37 20 SSW 998,6 58 0 0,6
26.10.2020 02:00:00 9,7 8,8 8,4 16 9 54 29 SSW 999,2 4,1 0 2,9
26.10.2020 01:00:00 10,5 7,9 8,0 14 8 32 17 SW 999,6 60 0 0,0
26.10.2020 00:00:00 9,4 7,8 7,0 9 5 22 12 S 999,4 60 0 0,0

tt = Température de l'air
td = dewpoint
tt 5cm = Température de l'air 5cm
ff = Vitesse du vent
fx = gusts
dd = Direction du vent
ppp = reduced air pressure
vv = visibility
sd = Ensoleillement
rr = Quantités de précipitations

stations d'obs. à proximité